Location: Champs
(48.8539°N, 2.6040°E)
Time: 11:29:11
(UTC+00:00)

ALOS - Pass Details

Date: 26 October 2021
Orbit: 683 x 684 km, 97.9° (Epoch: 06 December)

Event Time Altitude Azimuth Distance (km) Brightness Sun altitude
Rises 05:17:21 0° 1° (N) 3,063 5.6 -12.0°
Reaches altitude 10° 05:20:12 10° 343° (NNW) 2,142 4.6 -11.6°
Maximum altitude 05:23:20 18° 301° (WNW) 1,655 3.7 -11.1°
Enters shadow 05:25:15 14° 272° (W) 1,849 3.8 -10.8°
